Starlink 5653

operational
NORAD ID: 55345 Int'l Des: 2023-013 Owner: SPXS Country: US Constellation: starlink
LEOCIRCULAR

关于 Starlink 5653

正在加载描述...

实时位置

正在加载3D地球...

即将过境

高度历史

Altitude vs Time

uPlot chart will show altitude changes over time

两行轨道根数

1 55345U 23013Q 25351.42434793 -.00000051 00000-0 11269-4 0 9993
2 55345 43.0048 14.3951 0001158 281.7783 78.2929 15.02538695159485
Epoch: Dec 17, 2025 • Age: 11 hours

当前状态

高度 562.3 km
速度 7.59 km/s
星下点 40.55°N, 25.78°E
发射日期 Jan 26, 2023
运行时间 2.8 years
类型 internet

技术详情

分类 Payload
质量 305.00 kg
干质量 290.00 kg
总质量 305.00 kg
长度 0.20 m
直径 2.80 m
跨度 9.00 m
形状 Box + pan
制造商 SPXS
平台类型 Starlink
阶段状态 In Orbit
所有者/国家 SPXS/US

大型星座

Loading constellations...